,,PA_Meas_PMT16A,,PR_Meas_QMR101_102,,RH_Meas_QMH101,,SR_Meas_QMS101,,TA_Meas_QMH101,,GenWind,,GenWind,
time,status,PA,status,PR,status,RH,status,SR,status,TA,status,DirAvg,status,SpdAvg,
2011-12-31, 00:00:04,VALID,920.096,VALID,0,VALID,88.02,VALID,0,VALID,18.6109,VALID,351,VALID,0.575,
2011-12-31, 00:01:04,VALID,920.086,VALID,0,VALID,88.1419,VALID,0,VALID,18.6304,VALID,351,VALID,0.49375,
2011-12-31, 00:02:04,VALID,920.106,VALID,0,VALID,88.1191,VALID,0,VALID,18.6109,VALID,351,VALID,0.507031,
2011-12-31, 00:03:04,VALID,920.123,VALID,0,VALID,87.6769,VALID,0,VALID,18.5914,VALID,351,VALID,0.533594,
2011-12-31, 00:04:04,VALID,920.104,VALID,0,VALID,87.9361,VALID,0,VALID,18.6109,VALID,351,VALID,0.547266,
2011-12-31, 00:05:04,VALID,920.091,VALID,0,VALID,87.9666,VALID,0,VALID,18.5914,VALID,351,VALID,0.760938,
2011-12-31, 00:06:04,VALID,920.095,VALID,0,VALID,88.1038,VALID,0,VALID,18.533,VALID,351,VALID,0.365234,
2011-12-31, 00:07:04,VALID,920.137,VALID,0,VALID,88.3935,VALID,0,VALID,18.494,VALID,351,VALID,0.411328,
2011-12-31, 00:08:04,VALID,920.139,VALID,0,VALID,87.1738,VALID,0,VALID,18.4745,VALID,351,VALID,0,
2011-12-31, 00:09:04,VALID,920.149,VALID,0,VALID,86.5258,VALID,0,VALID,18.5135,VALID,351,VALID,0.00078125,
2011-12-31, 00:10:04,VALID,920.104,VALID,0,VALID,86.7164,VALID,0,VALID,18.6124,VALID,351,VALID,0.0121094,
2011-12-31, 00:11:04,VALID,920.091,VALID,0,VALID,87.7836,VALID,0,VALID,18.6499,VALID,351,VALID,0,
2011-12-31, 00:12:04,VALID,920.09,VALID,0,VALID,85.9159,VALID,0,VALID,18.6304,VALID,351,VALID,0,
2011-12-31, 00:13:04,VALID,920.096,VALID,0,VALID,84.719,VALID,0,VALID,18.6694,VALID,351,VALID,0,
2011-12-31, 00:14:04,VALID,920.101,VALID,0,VALID,85.8015,VALID,0,VALID,18.7474,VALID,351,VALID,0,
2011-12-31, 00:15:04,VALID,920.079,VALID,0,VALID,84.2083,VALID,0,VALID,18.7864,VALID,351,VALID,0.255078,
2011-12-31, 00:16:04,VALID,920.045,VALID,0,VALID,87.1738,VALID,0,VALID,18.8254,VALID,351,VALID,0.454688,
2011-12-31, 00:17:04,VALID,920.037,VALID,0,VALID,87.1966,VALID,0,VALID,18.7084,VALID,351,VALID,0.36875,
2011-12-31, 00:18:04,VALID,920.047,VALID,0,VALID,84.5742,VALID,0,VALID,18.6109,VALID,351,VALID,0.249609,
2011-12-31, 00:19:04,VALID,920.031,VALID,0,VALID,83.728,VALID,0,VALID,18.6304,VALID,351,VALID,0.00585938,
2011-12-31, 00:20:04,VALID,920.022,VALID,0,VALID,83.9033,VALID,0,VALID,18.7474,VALID,351,VALID,0,
2011-12-31, 00:21:04,VALID,919.997,VALID,0,VALID,82.7293,VALID,0,VALID,18.8254,VALID,351,VALID,0.288281,
2011-12-31, 00:22:04,VALID,920.008,VALID,0,VALID,81.0293,VALID,0,VALID,18.9814,VALID,351,VALID,0.820313,
2011-12-31, 00:23:04,VALID,919.972,VALID,0,VALID,82.7979,VALID,0,VALID,19.0969,VALID,351,VALID,0.294141,
2011-12-31, 00:24:04,VALID,919.974,VALID,0,VALID,83.4612,VALID,0,VALID,19.1178,VALID,351,VALID,0,
2011-12-31, 00:25:04,VALID,919.962,VALID,0,VALID,83.9109,VALID,0,VALID,19.0983,VALID,351,VALID,0.496484,
2011-12-31, 00:26:04,VALID,919.964,VALID,0,VALID,83.8576,VALID,0,VALID,19.0788,VALID,351,VALID,0.298047,
2011-12-31, 00:27:04,VALID,919.935,VALID,0,VALID,84.2616,VALID,0.107441,VALID,19.0788,VALID,351,VALID,0.228516,
2011-12-31, 00:28:04,VALID,919.92,VALID,0,VALID,82.2338,VALID,0,VALID,19.0189,VALID,351,VALID,1.01211,
2011-12-31, 00:29:04,VALID,919.867,VALID,0,VALID,83.728,VALID,0,VALID,19.0803,VALID,351,VALID,1.53906,
2011-12-31, 00:30:04,VALID,919.84,VALID,0,VALID,82.8589,VALID,0,VALID,18.9409,VALID,351,VALID,1.49375,
2011-12-31, 00:31:04,VALID,919.867,VALID,0,VALID,82.5463,VALID,0.107441,VALID,18.8824,VALID,351,VALID,0.808984,
2011-12-31, 00:32:04,VALID,919.862,VALID,0,VALID,82.958,VALID,0,VALID,18.8629,VALID,351,VALID,0.369141,
2011-12-31, 00:33:04,VALID,919.906,VALID,0,VALID,85.611,VALID,0,VALID,18.8449,VALID,219,VALID,1.05938,
2011-12-31, 00:34:04,VALID,919.852,VALID,0,VALID,86.3581,VALID,0,VALID,18.7669,VALID,188,VALID,1.91211,
2011-12-31, 00:35:04,VALID,919.854,VALID,0,VALID,86.8155,VALID,0,VALID,18.7084,VALID,181,VALID,0.96875,
2011-12-31, 00:36:04,VALID,919.769,VALID,0,VALID,87.3872,VALID,0,VALID,18.6694,VALID,181,VALID,0.619922,
2011-12-31, 00:37:04,VALID,919.745,VALID,0,VALID,87.9513,VALID,0,VALID,18.6109,VALID,181,VALID,0.964453,
2011-12-31, 00:38:04,VALID,919.754,VALID,0,VALID,88.302,VALID,0,VALID,18.533,VALID,181,VALID,0.180469,
2011-12-31, 00:39:04,VALID,919.746,VALID,0,VALID,88.424,VALID,0.107441,VALID,18.4731,VALID,181,VALID,0.624219,
2011-12-31, 00:40:04,VALID,919.7,VALID,0,VALID,84.1473,VALID,0,VALID,18.4536,VALID,181,VALID,0.310937,
2011-12-31, 00:41:04,VALID,919.704,VALID,0,VALID,85.2222,VALID,0,VALID,18.6095,VALID,181,VALID,0.348437,
2011-12-31, 00:42:04,VALID,919.714,VALID,0,VALID,84.0024,VALID,0,VALID,18.707,VALID,181,VALID,0.585938,
2011-12-31, 00:43:04,VALID,919.712,VALID,0,VALID,84.6199,VALID,0,VALID,18.785,VALID,188,VALID,1.14453,
2011-12-31, 00:44:04,VALID,919.68,VALID,0,VALID,85.1307,VALID,0.107441,VALID,18.8254,VALID,188,VALID,0.2,
2011-12-31, 00:45:04,VALID,919.673,VALID,0,VALID,85.1002,VALID,0,VALID,18.8045,VALID,188,VALID,0.223438,
2011-12-31, 00:46:04,VALID,919.643,VALID,0,VALID,83.9948,VALID,0,VALID,18.8059,VALID,188,VALID,0.466797,
2011-12-31, 00:47:04,VALID,919.628,VALID,0,VALID,84.8258,VALID,0,VALID,18.8644,VALID,188,VALID,0.263672,
2011-12-31, 00:48:04,VALID,919.651,VALID,0,VALID,84.2083,VALID,0,VALID,18.8434,VALID,188,VALID,0.376172,
2011-12-31, 00:49:04,VALID,919.612,VALID,0,VALID,85.0087,VALID,0,VALID,18.8839,VALID,188,VALID,0.510938,
2011-12-31, 00:50:04,VALID,919.61,VALID,0,VALID,83.5374,VALID,0,VALID,18.8644,VALID,188,VALID,0.6125,
2011-12-31, 00:51:04,VALID,919.566,VALID,0,VALID,84.3379,VALID,0,VALID,18.9229,VALID,188,VALID,0.990234,
2011-12-31, 00:52:04,VALID,919.534,VALID,0,VALID,84.7495,VALID,0,VALID,18.8644,VALID,188,VALID,1.01797,
2011-12-31, 00:53:04,VALID,919.548,VALID,0,VALID,85.1383,VALID,0,VALID,18.8254,VALID,188,VALID,0.669141,
2011-12-31, 00:54:04,VALID,919.511,VALID,0,VALID,85.1612,VALID,0,VALID,18.8059,VALID,188,VALID,0.687109,
2011-12-31, 00:55:04,VALID,919.527,VALID,0,VALID,85.7329,VALID,0.107441,VALID,18.746,VALID,188,VALID,0.619141,
2011-12-31, 00:56:04,VALID,919.573,VALID,0,VALID,85.8549,VALID,0,VALID,18.7279,VALID,188,VALID,0.411719,
2011-12-31, 00:57:04,VALID,919.569,VALID,0,VALID,86.1522,VALID,0,VALID,18.7084,VALID,188,VALID,0.374219,
2011-12-31, 00:58:04,VALID,919.548,VALID,0,VALID,86.3276,VALID,0,VALID,18.6889,VALID,188,VALID,0.160938,
2011-12-31, 00:59:04,VALID,919.512,VALID,0,VALID,87.5702,VALID,0,VALID,18.6875,VALID,188,VALID,0.723047,
2011-12-31, 01:00:04,VALID,919.526,VALID,0,VALID,86.8231,VALID,0,VALID,18.7084,VALID,188,VALID,0.695313,
2011-12-31, 01:01:04,VALID,919.563,VALID,0,VALID,86.4038,VALID,0,VALID,18.6889,VALID,188,VALID,0.642969,
2011-12-31, 01:02:04,VALID,919.557,VALID,0,VALID,83.9491,VALID,0,VALID,18.668,VALID,188,VALID,0.558984,
2011-12-31, 01:03:04,VALID,919.546,VALID,0,VALID,84.1549,VALID,0,VALID,18.7474,VALID,188,VALID,0.526953,
2011-12-31, 01:04:04,VALID,919.509,VALID,0,VALID,85.1154,VALID,0,VALID,18.8059,VALID,188,VALID,0.210547,
2011-12-31, 01:05:04,VALID,919.502,VALID,0,VALID,85.6643,VALID,0,VALID,18.7669,VALID,188,VALID,0.546094,
2011-12-31, 01:06:04,VALID,919.51,VALID,0,VALID,86.1294,VALID,0,VALID,18.707,VALID,188,VALID,1.38203,
2011-12-31, 01:07:04,VALID,919.465,VALID,0,VALID,86.6935,VALID,0,VALID,18.6694,VALID,188,VALID,0.619141,
2011-12-31, 01:08:04,VALID,919.441,VALID,0,VALID,87.0594,VALID,0,VALID,18.5511,VALID,188,VALID,0.728906,
2011-12-31, 01:09:04,VALID,919.402,VALID,0,VALID,87.4482,VALID,0,VALID,18.455,VALID,188,VALID,0.868359,
2011-12-31, 01:10:04,VALID,919.376,VALID,0,VALID,87.776,VALID,0,VALID,18.3575,VALID,188,VALID,0.465625,
2011-12-31, 01:11:04,VALID,919.347,VALID,0,VALID,88.4316,VALID,0,VALID,18.338,VALID,188,VALID,0,
2011-12-31, 01:12:04,VALID,919.354,VALID,0,VALID,87.0899,VALID,0,VALID,18.299,VALID,188,VALID,0,
2011-12-31, 01:13:04,VALID,919.322,VALID,0,VALID,87.3262,VALID,0,VALID,18.3185,VALID,188,VALID,0.326562,
2011-12-31, 01:14:04,VALID,919.301,VALID,0,VALID,87.5016,VALID,0,VALID,18.299,VALID,188,VALID,0.169922,
2011-12-31, 01:15:04,VALID,919.313,VALID,0,VALID,87.776,VALID,0,VALID,18.2796,VALID,188,VALID,0.0730469,
2011-12-31, 01:16:04,VALID,919.31,VALID,0,VALID,87.5778,VALID,0,VALID,18.299,VALID,188,VALID,0,
2011-12-31, 01:17:04,VALID,919.309,VALID,0,VALID,87.9666,VALID,0,VALID,18.338,VALID,188,VALID,0,
2011-12-31, 01:18:04,VALID,919.267,VALID,0,VALID,88.2868,VALID,0,VALID,18.3575,VALID,188,VALID,0,
2011-12-31, 01:19:04,VALID,919.202,VALID,0,VALID,88.241,VALID,0,VALID,18.416,VALID,188,VALID,0.075,
2011-12-31, 01:20:04,VALID,919.159,VALID,0,VALID,85.6262,VALID,0,VALID,18.3965,VALID,188,VALID,0.322656,
2011-12-31, 01:21:04,VALID,919.139,VALID,0,VALID,83.7508,VALID,0,VALID,18.4536,VALID,188,VALID,0.462109,
2011-12-31, 01:22:04,VALID,919.077,VALID,0,VALID,82.2643,VALID,0,VALID,18.572,VALID,188,VALID,0.647656,
2011-12-31, 01:23:04,VALID,919.062,VALID,0,VALID,81.014,VALID,0,VALID,18.6889,VALID,188,VALID,0.539453,
2011-12-31, 01:24:04,VALID,919.06,VALID,0,VALID,82.7979,VALID,0,VALID,18.8059,VALID,188,VALID,0.26875,
2011-12-31, 01:25:04,VALID,919.006,VALID,0,VALID,82.1728,VALID,0,VALID,18.8449,VALID,188,VALID,0,
2011-12-31, 01:26:04,VALID,918.966,VALID,0,VALID,82.3786,VALID,0,VALID,18.8644,VALID,188,VALID,0,
2011-12-31, 01:27:04,VALID,918.951,VALID,0,VALID,81.4333,VALID,0,VALID,18.9034,VALID,188,VALID,0.00078125,
2011-12-31, 01:28:04,VALID,918.931,VALID,0,VALID,80.3965,VALID,0,VALID,18.9438,VALID,188,VALID,0.555859,
2011-12-31, 01:29:04,VALID,918.892,VALID,0,VALID,82.5997,VALID,0,VALID,18.9424,VALID,188,VALID,0.524609,
2011-12-31, 01:30:04,VALID,918.885,VALID,0,VALID,79.8019,VALID,0,VALID,18.9438,VALID,188,VALID,0.396875,
2011-12-31, 01:31:04,VALID,918.861,VALID,0,VALID,81.1589,VALID,0,VALID,19.0203,VALID,188,VALID,0.611328,
2011-12-31, 01:32:04,VALID,918.844,VALID,0,VALID,79.7714,VALID,0,VALID,19.0008,VALID,188,VALID,0.566406,
2011-12-31, 01:33:04,VALID,918.843,VALID,0,VALID,82.4396,VALID,0,VALID,19.0008,VALID,188,VALID,0.123828,
2011-12-31, 01:34:04,VALID,918.8,VALID,0,VALID,83.2934,VALID,0,VALID,19.0023,VALID,187,VALID,0.419531,
2011-12-31, 01:35:04,VALID,918.829,VALID,0,VALID,83.1029,VALID,0,VALID,18.8644,VALID,188,VALID,0.367578,
2011-12-31, 01:36:04,VALID,918.81,VALID,0,VALID,82.6455,VALID,0,VALID,18.7864,VALID,188,VALID,0.537109,
2011-12-31, 01:37:04,VALID,918.778,VALID,0,VALID,81.9746,VALID,0,VALID,18.7474,VALID,188,VALID,0.322656,
2011-12-31, 01:38:04,VALID,918.768,VALID,0,VALID,84.0863,VALID,0,VALID,18.7864,VALID,188,VALID,0.236328,
2011-12-31, 01:39:04,VALID,918.733,VALID,0,VALID,84.5742,VALID,0,VALID,18.7683,VALID,188,VALID,0.0957031,
2011-12-31, 01:40:04,VALID,918.755,VALID,0,VALID,81.4791,VALID,0,VALID,18.7293,VALID,188,VALID,0.469922,
2011-12-31, 01:41:04,VALID,918.746,VALID,0,VALID,82.4701,VALID,0,VALID,18.7474,VALID,188,VALID,0.462891,
2011-12-31, 01:42:04,VALID,918.73,VALID,0,VALID,83.2629,VALID,0,VALID,18.7669,VALID,188,VALID,0.399219,
2011-12-31, 01:43:04,VALID,918.726,VALID,0,VALID,83.7661,VALID,0,VALID,18.7084,VALID,188,VALID,0.676953,
2011-12-31, 01:44:04,VALID,918.702,VALID,0,VALID,84.5437,VALID,0,VALID,18.6499,VALID,188,VALID,0.441016,
2011-12-31, 01:45:04,VALID,918.73,VALID,0,VALID,84.5284,VALID,0,VALID,18.6109,VALID,188,VALID,0.235156,
2011-12-31, 01:46:04,VALID,918.72,VALID,0,VALID,84.0024,VALID,0,VALID,18.6319,VALID,188,VALID,0.336328,
2011-12-31, 01:47:04,VALID,918.693,VALID,0,VALID,84.719,VALID,0,VALID,18.6513,VALID,188,VALID,0.305469,
2011-12-31, 01:48:04,VALID,918.714,VALID,0,VALID,84.8944,VALID,0,VALID,18.6304,VALID,188,VALID,0.2125,
2011-12-31, 01:49:04,VALID,918.689,VALID,0,VALID,84.597,VALID,0,VALID,18.5914,VALID,188,VALID,0.100391,
2011-12-31, 01:50:04,VALID,918.7,VALID,0,VALID,85.7406,VALID,0,VALID,18.5525,VALID,188,VALID,0.2375,
2011-12-31, 01:51:04,VALID,918.682,VALID,0,VALID,83.5526,VALID,0,VALID,18.416,VALID,188,VALID,0.515625,
2011-12-31, 01:52:04,VALID,918.695,VALID,0,VALID,85.2679,VALID,0,VALID,18.377,VALID,188,VALID,0.304688,
2011-12-31, 01:53:04,VALID,918.677,VALID,0,VALID,85.2908,VALID,0,VALID,18.3394,VALID,188,VALID,0.484375,
2011-12-31, 01:54:04,VALID,918.686,VALID,0,VALID,86.9527,VALID,0,VALID,18.2406,VALID,188,VALID,0.710547,
2011-12-31, 01:55:04,VALID,918.71,VALID,0,VALID,87.1814,VALID,0,VALID,18.125,VALID,188,VALID,0.553516,
2011-12-31, 01:56:04,VALID,918.692,VALID,0,VALID,87.5168,VALID,0,VALID,18.0262,VALID,188,VALID,0.428516,
2011-12-31, 01:57:04,VALID,918.675,VALID,0,VALID,86.4648,VALID,0,VALID,18.0067,VALID,188,VALID,0.430078,
2011-12-31, 01:58:04,VALID,918.662,VALID,0,VALID,86.3276,VALID,0,VALID,18.0067,VALID,188,VALID,0.471094,
2011-12-31, 01:59:04,VALID,918.699,VALID,0,VALID,84.8791,VALID,0,VALID,18.0262,VALID,188,VALID,0.389844,
2011-12-31, 02:00:04,VALID,918.681,VALID,0,VALID,84.8105,VALID,0,VALID,18.1041,VALID,188,VALID,0.323047,
2011-12-31, 02:01:04,VALID,918.627,VALID,0,VALID,85.3518,VALID,0,VALID,18.1431,VALID,188,VALID,0.216016,
2011-12-31, 02:02:04,VALID,918.639,VALID,0,VALID,85.2527,VALID,0,VALID,18.1821,VALID,188,VALID,0,
2011-12-31, 02:03:04,VALID,918.645,VALID,0,VALID,85.0926,VALID,0,VALID,18.2016,VALID,188,VALID,0,
2011-12-31, 02:04:04,VALID,918.643,VALID,0,VALID,85.7634,VALID,0,VALID,18.2406,VALID,188,VALID,0,
2011-12-31, 02:05:04,VALID,918.625,VALID,0,VALID,85.9845,VALID,0,VALID,18.2796,VALID,188,VALID,0,
2011-12-31, 02:06:04,VALID,918.614,VALID,0,VALID,85.1917,VALID,0,VALID,18.299,VALID,188,VALID,0,
2011-12-31, 02:07:04,VALID,918.608,VALID,0,VALID,84.4751,VALID,0,VALID,18.299,VALID,188,VALID,0,
2011-12-31, 02:08:04,VALID,918.568,VALID,0,VALID,82.7064,VALID,0,VALID,18.3185,VALID,188,VALID,0,
2011-12-31, 02:09:04,VALID,918.574,VALID,0,VALID,81.8755,VALID,0,VALID,18.3979,VALID,188,VALID,0.417969,
2011-12-31, 02:10:04,VALID,918.518,VALID,0,VALID,81.7078,VALID,0,VALID,18.4745,VALID,188,VALID,0.304297,
2011-12-31, 02:11:04,VALID,918.476,VALID,0,VALID,81.9746,VALID,0,VALID,18.5525,VALID,188,VALID,0.249609,
2011-12-31, 02:12:04,VALID,918.471,VALID,0,VALID,82.1652,VALID,0,VALID,18.6319,VALID,188,VALID,0.216016,
2011-12-31, 02:13:04,VALID,918.42,VALID,0,VALID,82.5387,VALID,0,VALID,18.6109,VALID,188,VALID,0,
2011-12-31, 02:14:04,VALID,918.413,VALID,0,VALID,83.9109,VALID,0,VALID,18.6109,VALID,187,VALID,0,
2011-12-31, 02:15:04,VALID,918.385,VALID,0,VALID,84.1015,VALID,0,VALID,18.5914,VALID,188,VALID,0,
2011-12-31, 02:16:04,VALID,918.338,VALID,0,VALID,82.5006,VALID,0,VALID,18.572,VALID,188,VALID,0.784375,
2011-12-31, 02:17:04,VALID,918.363,VALID,0,VALID,83.0266,VALID,0,VALID,18.5135,VALID,188,VALID,0.322266,
2011-12-31, 02:18:04,VALID,918.342,VALID,0,VALID,83.1562,VALID,0,VALID,18.5344,VALID,188,VALID,0.279297,
2011-12-31, 02:19:04,VALID,918.314,VALID,0,VALID,82.9428,VALID,0,VALID,18.5344,VALID,188,VALID,0,
2011-12-31, 02:20:04,VALID,918.276,VALID,0,VALID,82.6378,VALID,0,VALID,18.5539,VALID,187,VALID,0,
2011-12-31, 02:21:04,VALID,918.259,VALID,0,VALID,82.1271,VALID,0,VALID,18.572,VALID,187,VALID,0,
2011-12-31, 02:22:04,VALID,918.215,VALID,0,VALID,83.3925,VALID,0.107441,VALID,18.5705,VALID,188,VALID,0,
2011-12-31, 02:23:04,VALID,918.208,VALID,0,VALID,82.5921,VALID,0.107441,VALID,18.5121,VALID,188,VALID,0.614453,
2011-12-31, 02:24:04,VALID,918.18,VALID,0,VALID,83.0952,VALID,0.107441,VALID,18.4731,VALID,188,VALID,0.448828,
2011-12-31, 02:25:04,VALID,918.172,VALID,0,VALID,84.0634,VALID,0.107441,VALID,18.4731,VALID,187,VALID,0.49375,
2011-12-31, 02:26:04,VALID,918.193,VALID,0,VALID,82.897,VALID,0.107441,VALID,18.4536,VALID,188,VALID,0.0902344,
2011-12-31, 02:27:04,VALID,918.172,VALID,0,VALID,82.2262,VALID,0.107441,VALID,18.4536,VALID,188,VALID,0,
2011-12-31, 02:28:04,VALID,918.117,VALID,0,VALID,82.0051,VALID,0.107441,VALID,18.5121,VALID,187,VALID,0.670703,
2011-12-31, 02:29:04,VALID,918.115,VALID,0,VALID,80.9531,VALID,0.107441,VALID,18.629,VALID,188,VALID,0.582031,
2011-12-31, 02:30:04,VALID,918.091,VALID,0,VALID,80.8997,VALID,0.107441,VALID,18.7864,VALID,188,VALID,0.122656,
2011-12-31, 02:31:04,VALID,918.051,VALID,0,VALID,82.0356,VALID,0,VALID,18.8045,VALID,188,VALID,0.0433594,
2011-12-31, 02:32:04,VALID,918.075,VALID,0,VALID,83.2325,VALID,0.107441,VALID,18.707,VALID,188,VALID,0.666797,
2011-12-31, 02:33:04,VALID,918.052,VALID,0,VALID,84.1854,VALID,0.107441,VALID,18.6095,VALID,188,VALID,0.695703,
2011-12-31, 02:34:04,VALID,918.02,VALID,0,VALID,84.6733,VALID,0,VALID,18.4536,VALID,188,VALID,0.505469,
2011-12-31, 02:35:04,VALID,917.987,VALID,0,VALID,85.6567,VALID,0.107441,VALID,18.3951,VALID,188,VALID,0.262891,
2011-12-31, 02:36:04,VALID,917.943,VALID,0,VALID,86.2742,VALID,0.107441,VALID,18.3172,VALID,188,VALID,0.807422,
2011-12-31, 02:37:04,VALID,917.964,VALID,0,VALID,86.3276,VALID,0,VALID,18.2211,VALID,188,VALID,0.694141,
2011-12-31, 02:38:04,VALID,917.967,VALID,0,VALID,87.3796,VALID,0,VALID,18.125,VALID,188,VALID,1.21055,
2011-12-31, 02:39:04,VALID,917.963,VALID,0,VALID,88.2868,VALID,0,VALID,18.047,VALID,188,VALID,1.36328,
2011-12-31, 02:40:04,VALID,917.948,VALID,0,VALID,88.607,VALID,0,VALID,17.9482,VALID,188,VALID,0.563672,
2011-12-31, 02:41:04,VALID,917.991,VALID,0,VALID,88.7213,VALID,0,VALID,17.9287,VALID,188,VALID,0.347266,
2011-12-31, 02:42:04,VALID,917.949,VALID,0,VALID,87.7684,VALID,0,VALID,17.9287,VALID,188,VALID,0.307031,
2011-12-31, 02:43:04,VALID,917.948,VALID,0,VALID,87.6922,VALID,0,VALID,17.9482,VALID,188,VALID,0.535937,
2011-12-31, 02:44:04,VALID,917.942,VALID,0,VALID,88.3097,VALID,0,VALID,17.9482,VALID,188,VALID,0.446875,
2011-12-31, 02:45:04,VALID,917.979,VALID,0,VALID,88.5536,VALID,0,VALID,17.9092,VALID,188,VALID,0.427734,
2011-12-31, 02:46:04,VALID,917.96,VALID,0,VALID,88.9271,VALID,0,VALID,17.8911,VALID,188,VALID,0.632813,
2011-12-31, 02:47:04,VALID,917.963,VALID,0,VALID,89.1406,VALID,0,VALID,17.8313,VALID,188,VALID,0.575391,
2011-12-31, 02:48:04,VALID,917.973,VALID,0,VALID,88.8433,VALID,0,VALID,17.8521,VALID,188,VALID,0.885938,
2011-12-31, 02:49:04,VALID,917.956,VALID,0,VALID,88.8967,VALID,0,VALID,17.8911,VALID,188,VALID,0.678125,
2011-12-31, 02:50:04,VALID,917.937,VALID,0,VALID,88.6375,VALID,0,VALID,17.9301,VALID,188,VALID,0.457031,
2011-12-31, 02:51:04,VALID,917.936,VALID,0,VALID,87.7989,VALID,0,VALID,17.9482,VALID,188,VALID,0.540625,
2011-12-31, 02:52:04,VALID,917.915,VALID,0,VALID,87.6388,VALID,0,VALID,18.0067,VALID,188,VALID,0.443359,
2011-12-31, 02:53:04,VALID,917.907,VALID,0,VALID,87.189,VALID,0,VALID,18.086,VALID,188,VALID,0.342578,
2011-12-31, 02:54:04,VALID,917.883,VALID,0,VALID,87.3186,VALID,0,VALID,18.1236,VALID,188,VALID,0.175781,
2011-12-31, 02:55:04,VALID,917.861,VALID,0,VALID,86.0607,VALID,0,VALID,18.125,VALID,188,VALID,0.160156,
2011-12-31, 02:56:04,VALID,917.858,VALID,0,VALID,85.0468,VALID,0,VALID,18.1821,VALID,188,VALID,0.336719,
2011-12-31, 02:57:04,VALID,917.851,VALID,0,VALID,85.9311,VALID,0,VALID,18.3199,VALID,188,VALID,0,
2011-12-31, 02:58:04,VALID,917.84,VALID,0,VALID,85.6415,VALID,0,VALID,18.3199,VALID,188,VALID,0,
2011-12-31, 02:59:04,VALID,917.826,VALID,0,VALID,85.3975,VALID,0,VALID,18.3185,VALID,188,VALID,0,
2011-12-31, 03:00:04,VALID,917.804,VALID,0,VALID,85.0545,VALID,0,VALID,18.3185,VALID,188,VALID,0,
2011-12-31, 03:01:04,VALID,917.823,VALID,0,VALID,84.0405,VALID,0,VALID,18.3965,VALID,188,VALID,0.110547,
2011-12-31, 03:02:04,VALID,917.8,VALID,0,VALID,84.5284,VALID,0,VALID,18.455,VALID,188,VALID,0,
2011-12-31, 03:03:04,VALID,917.806,VALID,0,VALID,83.08,VALID,0,VALID,18.4355,VALID,188,VALID,0.0605469,
2011-12-31, 03:04:04,VALID,917.792,VALID,0,VALID,83.2706,VALID,0,VALID,18.4745,VALID,188,VALID,0.250391,
2011-12-31, 03:05:04,VALID,917.808,VALID,0,VALID,83.6365,VALID,0,VALID,18.5135,VALID,188,VALID,0.2875,
2011-12-31, 03:06:04,VALID,917.815,VALID,0,VALID,83.545,VALID,0,VALID,18.494,VALID,188,VALID,0.218359,
2011-12-31, 03:07:04,VALID,917.828,VALID,0,VALID,83.5298,VALID,0,VALID,18.455,VALID,188,VALID,0.291797,
2011-12-31, 03:08:04,VALID,917.824,VALID,0,VALID,84.8105,VALID,0,VALID,18.455,VALID,188,VALID,0.278906,
2011-12-31, 03:09:04,VALID,917.829,VALID,0,VALID,84.6352,VALID,0,VALID,18.377,VALID,188,VALID,0.242969,
2011-12-31, 03:10:04,VALID,917.841,VALID,0,VALID,84.8258,VALID,0,VALID,18.299,VALID,188,VALID,0.103516,
2011-12-31, 03:11:04,VALID,917.833,VALID,0,VALID,85.428,VALID,0,VALID,18.2406,VALID,188,VALID,0,
2011-12-31, 03:12:04,VALID,917.827,VALID,0,VALID,85.9311,VALID,0,VALID,18.1626,VALID,188,VALID,0,
2011-12-31, 03:13:04,VALID,917.822,VALID,0,VALID,85.8473,VALID,0,VALID,18.0846,VALID,188,VALID,0.253906,
2011-12-31, 03:14:04,VALID,917.799,VALID,0,VALID,86.9069,VALID,0,VALID,18.0067,VALID,188,VALID,0.0816406,
2011-12-31, 03:15:04,VALID,917.812,VALID,0,VALID,86.7773,VALID,0,VALID,17.9496,VALID,188,VALID,0,
2011-12-31, 03:16:04,VALID,917.802,VALID,0,VALID,87.189,VALID,0,VALID,17.9092,VALID,188,VALID,0,
2011-12-31, 03:17:04,VALID,917.777,VALID,0,VALID,86.6401,VALID,0,VALID,17.8702,VALID,188,VALID,0.512109,
2011-12-31, 03:18:04,VALID,917.773,VALID,0,VALID,86.5944,VALID,0,VALID,17.9106,VALID,188,VALID,0.442578,
2011-12-31, 03:19:04,VALID,917.774,VALID,0,VALID,87.0289,VALID,0,VALID,17.8702,VALID,188,VALID,0.384766,
2011-12-31, 03:20:04,VALID,917.79,VALID,0,VALID,87.1128,VALID,0,VALID,17.8508,VALID,188,VALID,0.324219,
2011-12-31, 03:21:04,VALID,917.816,VALID,0,VALID,87.5244,VALID,0,VALID,17.8118,VALID,188,VALID,0.882813,
2011-12-31, 03:22:04,VALID,917.812,VALID,0,VALID,87.7989,VALID,0,VALID,17.8313,VALID,188,VALID,0.914453,
2011-12-31, 03:23:04,VALID,917.815,VALID,0,VALID,87.8599,VALID,0,VALID,17.8508,VALID,188,VALID,0.398047,
2011-12-31, 03:24:04,VALID,917.831,VALID,0,VALID,87.7379,VALID,0,VALID,17.8313,VALID,188,VALID,0.326172,
2011-12-31, 03:25:04,VALID,917.838,VALID,0,VALID,87.8827,VALID,0,VALID,17.7728,VALID,188,VALID,0.173047,
2011-12-31, 03:26:04,VALID,917.856,VALID,0,VALID,88.2258,VALID,0,VALID,17.6948,VALID,188,VALID,0.392578,
2011-12-31, 03:27:04,VALID,917.828,VALID,0,VALID,88.3706,VALID,0.107441,VALID,17.6156,VALID,188,VALID,0.455469,
2011-12-31, 03:28:04,VALID,917.818,VALID,0,VALID,88.2563,VALID,0.107441,VALID,17.6169,VALID,188,VALID,0.688281,
2011-12-31, 03:29:04,VALID,917.81,VALID,0,VALID,88.0657,VALID,0.107441,VALID,17.6364,VALID,188,VALID,0.252734,
2011-12-31, 03:30:04,VALID,917.785,VALID,0,VALID,88.6527,VALID,0.107441,VALID,17.635,VALID,188,VALID,0.110937,
2011-12-31, 03:31:04,VALID,917.771,VALID,0,VALID,87.7303,VALID,0.107441,VALID,17.674,VALID,188,VALID,0.981641,
2011-12-31, 03:32:04,VALID,917.755,VALID,0,VALID,87.654,VALID,0.107441,VALID,17.7714,VALID,188,VALID,0.542969,
2011-12-31, 03:33:04,VALID,917.763,VALID,0,VALID,87.25,VALID,0.107441,VALID,17.7728,VALID,188,VALID,0.707812,
2011-12-31, 03:34:04,VALID,917.766,VALID,0,VALID,87.0442,VALID,0,VALID,17.8313,VALID,188,VALID,0.640625,
2011-12-31, 03:35:04,VALID,917.721,VALID,0,VALID,86.6325,VALID,0,VALID,17.8702,VALID,188,VALID,0.739062,
2011-12-31, 03:36:04,VALID,917.749,VALID,0,VALID,86.1751,VALID,0,VALID,17.9482,VALID,188,VALID,1.04844,
2011-12-31, 03:37:04,VALID,917.74,VALID,0,VALID,85.7253,VALID,0,VALID,18.0262,VALID,188,VALID,0.795703,
2011-12-31, 03:38:04,VALID,917.731,VALID,0,VALID,85.7253,VALID,0,VALID,18.1055,VALID,188,VALID,0.575,
2011-12-31, 03:39:04,VALID,917.751,VALID,0,VALID,85.428,VALID,0,VALID,18.1041,VALID,188,VALID,0.844141,
2011-12-31, 03:40:04,VALID,917.73,VALID,0,VALID,85.428,VALID,0,VALID,18.125,VALID,188,VALID,0.715234,
2011-12-31, 03:41:04,VALID,917.735,VALID,0,VALID,86.0303,VALID,0,VALID,18.125,VALID,188,VALID,0.336328,
2011-12-31, 03:42:04,VALID,917.747,VALID,0,VALID,86.0379,VALID,0,VALID,18.0651,VALID,188,VALID,0.286328,
2011-12-31, 03:43:04,VALID,917.741,VALID,0,VALID,86.419,VALID,0,VALID,18.0665,VALID,188,VALID,0.371875,
2011-12-31, 03:44:04,VALID,917.743,VALID,0,VALID,86.602,VALID,0,VALID,17.9677,VALID,188,VALID,0.196094,
2011-12-31, 03:45:04,VALID,917.754,VALID,0,VALID,87.0213,VALID,0,VALID,17.9482,VALID,188,VALID,0,